Gallup, NM

9:27 PM MDT on March 27, 2017 (GMT -0600)
Gallup Municipal

Weather History for KGUP - May, 2013

Change the Weather History Date:

Tuesday, May 14, 2013

  Actual Average Record
Temperature  
Mean Temperature 62 °F -  
Max Temperature 80 °F 73 °F 86 °F (2006)
Min Temperature 44 °F 33 °F 23 °F (1985)
Degree Days  
Heating Degree Days 3    
Growing Degree Days 12 (Base 50)    
Moisture  
Dew Point 27 °F    
Average Humidity 26    
Maximum Humidity 46    
Minimum Humidity 12    
Precipitation  
Precipitation 0.00 in - - ()
Sea Level Pressure  
Sea Level Pressure 29.77 in    
Wind  
Wind Speed 8 mph (SW)    
Max Wind Speed 25 mph    
Max Gust Speed 37 mph    
Visibility 10 miles    
Events Rain    
Averages and records for this station are not official NWS values.
T = Trace of Precipitation, MM = Missing Value Source: NWS Daily Summary

Daily Weather History Graph

Daily Weather History Graph

Search for Another Location

Airport or City:

Trip Planner

Search our weather history database for the weather conditions in past years. The results will help you decide how hot, cold, wet, or windy it might be!

Date:

Astronomy

May. 14, 2013 Rise Set
Actual Time 6:11 AM MDT 8:12 PM MDT
Civil Twilight 5:42 AM MDT 8:40 PM MDT
Nautical Twilight 5:08 AM MDT 9:15 PM MDT
Astronomical Twilight 4:31 AM MDT 9:52 PM MDT
Moon 9:53 AM MDT (5/14) No Moon Set
Length of Visible Light 14h 58m
Length of Day
14h 01m
Waxing Crescent, 19% of the Moon is Illuminated
May 14
Waxing Crescent
May 17
First Quarter
May 24
Full
May 31
Last Quarter
Jun 8
New

Hourly Weather History & Observations

Time (MDT) Temp. Windchill Dew Point Humidity Pressure Visibility Wind Dir Wind Speed Gust Speed Precip Events Conditions
12:53 AM 60.1 °F - 28.0 °F 30% 29.77 in 10.0 mi SSE 8.1 mph - N/A   Mostly Cloudy
1:53 AM 52.0 °F - 26.1 °F 37% 29.80 in 10.0 mi ENE 4.6 mph - N/A   Scattered Clouds
2:53 AM 50.0 °F - 26.1 °F 39% 29.81 in 10.0 mi Calm Calm - N/A   Clear
3:53 AM 46.9 °F - 26.1 °F 44% 29.80 in 10.0 mi ENE 3.5 mph - N/A   Clear
4:53 AM 46.9 °F - 26.1 °F 44% 29.83 in 10.0 mi Calm Calm - N/A   Clear
5:53 AM 44.1 °F 42.5 °F 24.1 °F 45% 29.86 in 10.0 mi ENE 3.5 mph - N/A   Clear
6:53 AM 46.0 °F 44.8 °F 26.1 °F 46% 29.86 in 10.0 mi ENE 3.5 mph - N/A   Clear
7:53 AM 52.0 °F - 27.0 °F 38% 29.85 in 9.0 mi Calm Calm - N/A   Clear
8:53 AM 64.0 °F - 27.0 °F 25% 29.81 in 10.0 mi WSW 6.9 mph - N/A   Clear
9:53 AM 71.1 °F - 21.9 °F 16% 29.80 in 10.0 mi WSW 11.5 mph - N/A   Clear
10:53 AM 73.0 °F - 23.0 °F 15% 29.77 in 10.0 mi SW 12.7 mph 18.4 mph N/A   Clear
11:53 AM 73.0 °F - 23.0 °F 15% 29.78 in 10.0 mi WSW 8.1 mph - N/A   Clear
12:53 PM 78.1 °F - 25.0 °F 14% 29.69 in 10.0 mi SSW 11.5 mph 17.3 mph N/A   Clear
1:53 PM 80.1 °F - 23.0 °F 12% 29.70 in 10.0 mi Variable 5.8 mph - N/A   Clear
2:53 PM 75.9 °F - 28.9 °F 18% 29.75 in 10.0 mi WNW 25.3 mph 31.1 mph N/A   Scattered Clouds
3:53 PM 75.9 °F - 26.1 °F 16% 29.73 in 10.0 mi SW 15.0 mph - N/A   Clear
4:53 PM 78.1 °F - 24.1 °F 14% 29.69 in 10.0 mi WSW 15.0 mph - N/A   Partly Cloudy
5:53 PM 75.9 °F - 23.0 °F 14% 29.72 in 10.0 mi SW 11.5 mph - N/A   Clear
6:53 PM 75.0 °F - 24.1 °F 15% 29.71 in 10.0 mi SW 11.5 mph - N/A   Overcast
7:53 PM 70.0 °F - 30.0 °F 23% 29.75 in 10.0 mi NW 19.6 mph - 0.00 in   Overcast
8:10 PM 69.8 °F - 30.2 °F 23% 30.12 in 10.0 mi SW 8.1 mph 28.8 mph 0.00 in Rain Light Rain
8:53 PM 68.0 °F - 32.0 °F 26% 29.70 in 10.0 mi SSW 13.8 mph 36.8 mph 0.00 in   Scattered Clouds
9:53 PM 66.9 °F - 30.9 °F 26% 29.65 in 10.0 mi SW 11.5 mph - 0.00 in   Scattered Clouds
10:53 PM 64.9 °F - 30.9 °F 28% 29.68 in 10.0 mi SW 9.2 mph - N/A   Mostly Cloudy
11:53 PM 63.0 °F - 30.9 °F 30% 29.68 in 10.0 mi SSW 9.2 mph - N/A   Partly Cloudy